Simultaneous Nadir Overpasses (SNOs) Predictions

Prediction of SNOs between GOES-15 and NPP Satellite Orbit:

Table of predicted SNOs for the next 14.0 days since TLE Epoch: 1/20/2017
Index Date Time (GOES-15) GOES-15 Lat,Lon NPP Lat,Lon Distance(km) Time Diff (sec)
1 01/20/2017 10:37:22 -0.07,-135.11 0.63,-138.32 365.73 80
2 01/21/2017 10:21:17 -0.07,-135.14 -0.36,-133.78 154.16 80
3 01/22/2017 22:43:13 0.07,-135.16 -0.78,-139.09 448.02 80
4 01/23/2017 22:21:48 0.06,-135.18 0.21,-134.56 71.31 80
5 01/26/2017 10:24:49 -0.06,-135.26 -0.03,-135.29 4.36 80
6 01/28/2017 22:30:40 0.06,-135.29 -0.11,-136.07 88.55 80
7 01/29/2017 22:09:15 0.06,-135.30 0.88,-131.53 429.76 80
8 01/31/2017 10:31:02 -0.06,-135.35 0.28,-136.80 165.92 80
9 02/01/2017 10:14:58 -0.06,-135.36 -0.77,-132.28 352.20 80
10 02/02/2017 22:36:53 0.06,-135.36 -0.43,-137.57 252.19 80




NCC Satellite Simultaneous Nadir Overpasses (SNOs) Prediction Service
